User: anonymous   Login
Location: Clatteringshaws Loch
(55.0508°N, 4.2860°W)
Time: 23:32:48
(UTC+01:00)
Language:

Cosmos 2221 Rocket - Orbit

View from above orbital plane
View from above orbital plane
View from above satellite
View from above satellite

Ground track
Ground track

The orbit data is extracted from the following two-line orbital elements,

1 22237U 92080B   15090.53297859  .00000419  00000-0  54687-4 0  9996
2 22237 082.5129 149.8710 0018987 333.5832 146.4273 14.78096336203970
Epoch (UTC): 31 March 2015 12:47:29
Eccentricity: 0.0018987
inclination: 82.5129°
perigee height: 622 km
apogee height: 648 km
right ascension of ascending node: 149.8710°
argument of perigee: 333.5832°
revolutions per day: 14.78096336
mean anomaly at epoch: 146.4273°
orbit number at epoch: 20397

The dashed part of the orbit path shows where the satellite is in the earth's shadow,  

DLR